Regional Weather Roundup
Issued by NWS

Home | Current Version | Previous Version | Text Only | Print | Product List | Glossary On
Versions: 1 2 3 4 5 6 7 8 9 10 11 12 13 14 15 16 17 18 19 20 21 22 23 24 25 26 27 28 29 30 31 32 33 34 35 36 37 38 39 40 41 42 43 44 45 46 47 48 49 50
000
ASUS43 KIND 302009
RWRIN

WEATHER ROUNDUP FOR INDIANA
NATIONAL WEATHER SERVICE INDIANAPOLIS IN
400 PM EDT MON MAY 30 2016

NOTE: "FAIR" INDICATES FEW OR NO CLOUDS BELOW 12,000 FEET WITH NO
SIGNIFICANT WEATHER AND/OR OBSTRUCTIONS TO VISIBILITY.

* - STATION DOES NOT REPORT WEATHER SUCH AS PRECIPITATION OR FOG.

+ - STATION NOT QUALITY CONTROLLED BY THE NATIONAL WEATHER SERVICE.
    USE DATA WITH CAUTION...ESPECIALLY DEWPOINT AND RELATIVE
    HUMIDITY OBSERVATIONS.

INZ001>003-010>013-019-020-302100-
NORTHWEST INDIANA

CITY           SKY/WX    TMP DP  RH WIND       PRES   REMARKS
GARY /AIRPORT/ MOSUNNY   81  66  61 E9        30.00F
KNOX *+          N/A     86  37  17 W10       29.98F
LA PORTE +     SUNNY     85  58  40 N13G18    30.00F
MICHIGAN CITY+ SUNNY     81  59  47 N5        30.00F
MONTICELLO +   MOSUNNY   88  40  18 W7        29.98F
RENSSELAER +   MOSUNNY   88  45  22 NW13      29.98F
VALPARAISO     MOSUNNY   86  58  38 NW10      29.99F

$$

LMZ046-743>745-302100-
SOUTHERN LAKE MICHIGAN

STATION/POSITION TIME  TEMP    WIND        PRES    WAVE
                       AIR SEA DIR/SP/G            HT
                 (UTC) (F)     (DEG/KT/KT) (MB)    (FT)
BURNS HARBOR     1900   67      70/ 10/ 11 1016.3F
MICHIGAN CITY    1900   65      30/ 10/ 10   N/A
5NW MICH CITY    2000   65 62   70/  6/  6   N/A     1

$$

INZ004-005-014>016-021>024-302100-
NORTH CENTRAL INDIANA

CITY           SKY/WX    TMP DP  RH WIND       PRES   REMARKS
ELKHART        MOSUNNY   84  63  48 NW10G17   30.00F
GOSHEN         SUNNY     83  53  35 NW16G22   29.99F
LOGANSPORT +   SUNNY     86  52  30 W9        30.00F
PERU/GRISSOM   MOSUNNY   86  54  33 NW12      29.99F
ROCHESTER +    SUNNY     88  57  35 NW7       30.00S
SOUTH BEND     SUNNY     83  58  42 NW10      30.00F
WARSAW +       MOSUNNY   82  54  36 NW8       29.99F

$$

INZ006>009-017-018-025>027-302100-
NORTHEAST INDIANA

CITY           SKY/WX    TMP DP  RH WIND       PRES   REMARKS
ANGOLA *+        N/A     84  81  89 NW10      29.99F HX  98
AUBURN +       MOSUNNY   84  52  32 NW8       30.00F
FORT WAYNE     CLOUDY    84  54  35 N10       29.99F
HUNTINGTON +   PTSUNNY   83  50  31 NW5       29.99F

$$

INZ028-029-035-036-043>045-051>053-302100-
WEST CENTRAL INDIANA

CITY           SKY/WX    TMP DP  RH WIND       PRES   REMARKS
CRAWFORDSVL +  SUNNY     84  53  33 W5        30.03S
GREENCASTLE +  PTSUNNY   82  61  47 W3        30.04S
LAFAYETTE      SUNNY     85  53  33 W10       29.99F
TERRE HAUTE    SUNNY     86  55  34 NW3       30.03F

$$

INZ030>032-037>040-046>048-054>057-064-065-302100-
CENTRAL INDIANA

CITY           SKY/WX    TMP DP  RH WIND       PRES   REMARKS
CP ATTERBURY + MOSUNNY   82  52  34 CALM      30.03F
COLUMBUS       MOSUNNY   84  54  34 CALM      30.02F
FISHERS *+     MOSUNNY   82  59  44 CALM      30.01F
FRANKFORT +      N/A     87  23   9 NW10G22   30.02F
GREENWOOD *+   SUNNY     82  55  39 CALM      30.03F
INDIANAPOLIS   PTSUNNY   82  56  40 SW7       30.01F
-EAGLE CREEK   SUNNY     85  53  33 VRB5      30.01F
KOKOMO *+      MOSUNNY   88  55  33 W9        29.99F
MARION +       PTSUNNY   85  51  30 NW3       30.01F HAZE
SHELBYVILLE    MOSUNNY   87  53  31 VRB5      30.02F
ZIONSVILLE +   MOSUNNY   85  53  32 SW6       30.02F

$$

INZ033-034-041-042-049-050-058-059-302100-
EAST CENTRAL INDIANA

CITY           SKY/WX    TMP DP  RH WIND       PRES   REMARKS
MUNCIE         MOSUNNY   87  51  28 W8        30.01F

$$

INZ060-061-067>069-081>083-085>088-302100-
SOUTHWEST INDIANA

CITY           SKY/WX    TMP DP  RH WIND       PRES   REMARKS
EVANSVILLE     SUNNY     87  57  35 NW5       30.03F
HUNTINGBURG *+ SUNNY     84  63  48 N5        30.03F
WASHINGTON +   SUNNY     85  58  39 NW3       30.02F

$$

INZ062-063-066-070>080-084-089>092-302100-
SOUTH CENTRAL AND SOUTHEAST INDIANA

CITY           SKY/WX    TMP DP  RH WIND       PRES   REMARKS
BEDFORD +      SUNNY     84  66  54 NE7       30.02F
BLOOMINGTON    SUNNY     83  56  39 W5        30.04F
MADISON *+     SUNNY     86  48  26 N3        30.04F
NORTH VERNON + MOSUNNY   88  59  37 CALM      30.03F
SEYMOUR +      MOSUNNY   88  55  33 NW8       30.02F

$$





USA.gov is the U.S. government's official web portal to all federal, state and local government web resources and services.